Date String (YYYY-MM-DD hh:mm:ss) UTC,Instrument flags,absolute air pressure of the measurement (hPa),sample flow rate (lpm),inlet stack bypass flow (lpm),air temperature of the measurement (°C),ambient temperature measured by the external sensor (°C),aerosol sample conditioner tube jacket temperature (°C),OPC LED temperature (°C),internal box temperature (°C),relative humidity of the measurement (%),span deviation,mass concentration of particles derived from Lorenz-Mie calculation of OPC scattering (μg/m³),mass concentration of particles derived from Lorenz-Mie calculation of OPC scattering (μg/m³),mass concentration of particles derived from Lorenz-Mie calculation of OPC scattering (μg/m³)
DateTimeUTC,F1_M11,P_M11,Q1_M11,Q2_M11,T1_M11,T2_M11,T3_M11,T4_M11,T5_M11,U1_M11,ZSPAN_M11,X0_M11,X2_M11,X1_M11
2023-07-28 08:00:00,SystemResetWarning,0834.2,5.00,000.00,029.5,028.3,000.0,037.8,031.1,28.6,0000.0,0008.40,0004.02,0003.22
2023-07-28 08:01:00,SystemResetWarning,0834.2,5.01,000.00,029.5,028.4,000.0,037.8,031.1,28.5,0000.0,0008.27,0004.07,0003.23
2023-07-28 08:02:00,SystemResetWarning,0834.2,5.00,000.00,029.5,028.3,000.0,037.9,031.2,28.4,0000.0,0008.31,0004.10,0003.22
2023-07-28 08:03:00,SystemResetWarning,0834.2,4.98,000.00,029.5,026.7,000.0,037.8,031.0,28.7,0000.0,0008.38,0004.07,0003.22
2023-07-28 08:04:00,SystemResetWarning,0834.1,5.00,000.00,029.4,025.3,000.0,037.7,030.8,28.7,0000.0,0008.34,0004.06,0003.23
2023-07-28 08:05:00,SystemResetWarning,0834.1,5.01,000.00,029.3,025.2,000.0,037.6,030.4,29.3,0000.0,0008.55,0004.12,0003.23
2023-07-28 08:06:00,SystemResetWarning,0834.1,5.01,000.00,029.2,025.5,000.0,037.7,030.4,29.1,0000.0,0008.52,0004.10,0003.21
2023-07-28 08:07:00,SystemResetWarning,0834.1,5.00,000.00,029.2,025.9,000.0,037.7,030.5,29.0,0000.0,0008.23,0004.04,0003.19
2023-07-28 08:08:00,SystemResetWarning,0834.1,5.00,000.00,029.1,026.3,000.0,037.7,030.5,28.7,0000.0,0008.19,0004.02,0003.17
2023-07-28 08:09:00,SystemResetWarning,0834.1,5.00,000.00,029.1,026.7,000.0,037.7,030.6,29.8,0000.0,0008.23,0003.96,0003.15
2023-07-28 08:10:00,SystemResetWarning,0834.1,5.00,000.00,029.2,027.0,000.0,037.7,030.7,29.5,0000.0,0008.17,0003.94,0003.15
2023-07-28 08:11:00,SystemResetWarning,0834.1,5.00,000.00,029.2,027.2,000.0,037.7,030.7,29.7,0000.0,0008.14,0003.93,0003.14
2023-07-28 08:12:00,SystemResetWarning,0834.2,5.00,000.00,029.2,027.4,000.0,037.7,030.8,29.7,0000.0,0007.87,0003.85,0003.11
2023-07-28 08:13:00,SystemResetWarning,0834.2,4.99,000.00,029.2,027.6,000.0,037.7,030.8,29.4,0000.0,0007.65,0003.77,0003.07
2023-07-28 08:14:00,SystemResetWarning,0834.2,4.99,000.00,029.2,027.7,000.0,037.7,030.9,29.5,0000.0,0008.03,0003.75,0003.05
2023-07-28 08:15:00,SystemResetWarning,0834.4,5.00,000.00,029.3,027.9,000.0,037.7,030.9,29.6,0000.0,0008.17,0003.68,0002.99
2023-07-28 08:16:00,SystemResetWarning,0834.5,5.01,000.00,029.3,028.0,000.0,037.7,030.9,29.1,0000.0,0008.20,0003.63,0002.93
2023-07-28 08:17:00,SystemResetWarning,0834.3,5.01,000.00,029.3,028.1,000.0,037.7,031.0,28.8,0000.0,0007.98,0003.59,0002.92
2023-07-28 08:18:00,SystemResetWarning,0834.4,5.00,000.00,029.4,028.2,000.0,037.8,031.0,29.3,0000.0,0008.19,0003.60,0002.90
2023-07-28 08:19:00,SystemResetWarning,0834.3,5.00,000.00,029.4,028.3,000.0,037.8,031.1,29.3,0000.0,0008.18,0003.55,0002.85
2023-07-28 08:20:00,SystemResetWarning,0834.3,5.00,000.00,029.4,028.3,000.0,037.8,031.1,29.6,0000.0,0008.14,0003.51,0002.83
2023-07-28 08:21:00,SystemResetWarning,0834.4,4.99,000.00,029.5,028.4,000.0,037.8,031.1,29.0,0000.0,0008.09,0003.50,0002.80
2023-07-28 08:22:00,SystemResetWarning,0834.4,4.99,000.00,029.5,028.0,000.0,037.8,031.1,29.3,0000.0,0008.21,0003.52,0002.79
2023-07-28 08:23:00,SystemResetWarning,0834.4,5.01,000.00,029.5,026.2,000.0,037.7,030.9,29.4,0000.0,0008.29,0003.54,0002.80
2023-07-28 08:24:00,SystemResetWarning,0834.2,5.00,000.00,029.4,025.2,000.0,037.6,030.7,29.3,0000.0,0008.28,0003.56,0002.82
2023-07-28 08:25:00,SystemResetWarning,0834.1,5.01,000.00,029.3,025.2,000.0,037.6,030.4,29.0,0000.0,0007.66,0003.53,0002.80
2023-07-28 08:26:00,SystemResetWarning,0834.1,5.01,000.00,029.2,025.6,000.0,037.6,030.4,29.0,0000.0,0007.65,0003.54,0002.81
2023-07-28 08:27:00,SystemResetWarning,0834.2,4.99,000.00,029.1,026.0,000.0,037.7,030.5,29.6,0000.0,0007.76,0003.53,0002.82
2023-07-28 08:28:00,SystemResetWarning,0834.2,5.00,000.00,029.1,026.4,000.0,037.7,030.6,29.9,0000.0,0007.81,0003.52,0002.81
2023-07-28 08:29:00,SystemResetWarning,0834.3,5.00,000.00,029.1,026.7,000.0,037.7,030.7,29.9,0000.0,0007.64,0003.51,0002.82
2023-07-28 08:30:00,SystemResetWarning,0834.3,5.00,000.00,029.2,027.0,000.0,037.7,030.7,29.9,0000.0,0007.53,0003.51,0002.83
2023-07-28 08:31:00,SystemResetWarning,0834.4,5.00,000.00,029.2,027.3,000.0,037.7,030.8,29.7,0000.0,0007.49,0003.54,0002.84
2023-07-28 08:32:00,SystemResetWarning,0834.4,5.00,000.00,029.2,027.5,000.0,037.7,030.8,29.6,0000.0,0008.39,0003.54,0002.84
2023-07-28 08:33:00,SystemResetWarning,0834.5,4.99,000.00,029.2,027.7,000.0,037.7,030.8,29.3,0000.0,0008.16,0003.48,0002.82
2023-07-28 08:34:00,SystemResetWarning,0834.4,4.99,000.00,029.2,027.8,000.0,037.7,030.9,29.0,0000.0,0008.09,0003.46,0002.81
2023-07-28 08:35:00,SystemResetWarning,0834.3,4.99,000.00,029.3,027.9,000.0,037.7,030.9,29.0,0000.0,0008.17,0003.43,0002.78
2023-07-28 08:36:00,SystemResetWarning,0834.3,5.00,000.00,029.3,028.0,000.0,037.7,031.0,29.1,0000.0,0008.43,0003.44,0002.77
2023-07-28 08:37:00,SystemResetWarning,0834.3,5.00,000.00,029.3,028.1,000.0,037.7,031.0,29.1,0000.0,0008.17,0003.42,0002.78
2023-07-28 08:38:00,SystemResetWarning,0834.6,5.00,000.00,029.4,028.2,000.0,037.8,031.0,29.1,0000.0,0007.73,0003.38,0002.76
2023-07-28 08:39:00,SystemResetWarning,0834.3,5.01,000.00,029.4,028.2,000.0,037.8,031.0,29.0,0000.0,0008.29,0003.37,0002.76
2023-07-28 08:40:00,SystemResetWarning,0834.3,5.01,000.00,029.4,028.3,000.0,037.8,031.1,28.8,0000.0,0008.29,0003.34,0002.76
2023-07-28 08:41:00,SystemResetWarning,0834.2,5.00,000.00,029.5,028.3,000.0,037.8,031.1,28.7,0000.0,0008.38,0003.35,0002.76
2023-07-28 08:42:00,SystemResetWarning,0834.5,5.00,000.00,029.5,028.4,000.0,037.8,031.1,28.8,0000.0,0008.45,0003.40,0002.78
2023-07-28 08:43:00,SystemResetWarning,0834.4,5.00,000.00,029.5,028.4,000.0,037.9,031.2,28.8,0000.0,0007.66,0003.40,0002.81
2023-07-28 08:44:00,SystemResetWarning,0834.5,4.99,000.00,029.5,028.4,000.0,037.9,031.2,28.9,0000.0,0007.69,0003.44,0002.84
2023-07-28 08:45:00,SystemResetWarning,0834.4,4.99,000.00,029.6,028.4,000.0,037.9,031.2,28.9,0000.0,0007.89,0003.52,0002.86
2023-07-28 08:46:00,SystemResetWarning,0834.3,5.00,000.00,029.6,027.1,000.0,037.8,031.1,28.7,0000.0,0008.53,0003.58,0002.89
2023-07-28 08:47:00,SystemResetWarning,0834.2,5.00,000.00,029.5,025.5,000.0,037.7,030.7,28.8,0000.0,0009.30,0003.63,0002.93
2023-07-28 08:48:00,SystemResetWarning,0834.2,5.01,000.00,029.4,025.1,000.0,037.7,030.5,29.2,0000.0,0010.22,0003.68,0002.95
2023-07-28 08:49:00,SystemResetWarning,0834.2,5.01,000.00,029.2,025.4,000.0,037.7,030.3,29.3,0000.0,0010.37,0003.74,0003.00
2023-07-28 08:50:00,SystemResetWarning,0834.2,5.00,000.00,029.2,025.8,000.0,037.7,030.4,29.3,0000.0,0009.98,0003.81,0003.05
2023-07-28 08:51:00,SystemResetWarning,0834.2,5.00,000.00,029.1,026.2,000.0,037.7,030.5,29.2,0000.0,0010.31,0003.90,0003.11
2023-07-28 08:52:00,SystemResetWarning,0834.2,5.00,000.00,029.1,026.5,000.0,037.7,030.6,29.2,0000.0,0010.83,0004.02,0003.14
2023-07-28 08:53:00,SystemResetWarning,0834.2,5.00,000.00,029.2,026.8,000.0,037.7,030.6,29.2,0000.0,0011.67,0004.25,0003.19
2023-07-28 08:54:00,SystemResetWarning,0834.2,5.00,000.00,029.2,027.1,000.0,037.7,030.7,29.1,0000.0,0013.03,0004.43,0003.23
2023-07-28 08:55:00,SystemResetWarning,0834.2,5.01,000.00,029.2,027.3,000.0,037.7,030.7,29.0,0000.0,0014.78,0004.54,0003.26
2023-07-28 08:56:00,SystemResetWarning,0834.2,5.00,000.00,029.2,027.5,000.0,037.7,030.8,28.8,0000.0,0016.14,0004.61,0003.31
2023-07-28 08:57:00,SystemResetWarning,0834.2,4.99,000.00,029.2,027.6,000.0,037.7,030.8,28.8,0000.0,0016.17,0004.71,0003.34
2023-07-28 08:58:00,SystemResetWarning,0834.2,4.99,000.00,029.2,027.8,000.0,037.7,030.8,28.6,0000.0,0016.40,0004.80,0003.38
2023-07-28 08:59:00,SystemResetWarning,0834.4,5.00,000.00,029.3,027.9,000.0,037.7,030.9,28.6,0000.0,0016.78,0004.93,0003.41
